Torna al catalogo

COSMOS 397 DEB *

AttivoLEO
NORAD 19367·DEBRIS·🇷🇺 Russia

Lanciato Feb 25, 1971 da Baikonur Cosmodrome

Loading…

Prossimi Passaggi (prossime 24 ore)

TLE

AggiornatoSource: Space-Track

Epoca: Sep 14, 2026, 05:17 UTC

1 19367U 71015DS  26257.22024399  .00000232  00000-0  26285-3 0  9996
2 19367  65.7121 168.8334 0161892  35.5698  41.1957 13.82538740935102

Traccia COSMOS 397 DEB * in tempo reale con AllMySat

Download on the App Store